This is the latest recevied weather packets stored in our database for station/object EA7OC-10. If no packets are shown the sender has not sent any weather packets the latest 10 day(s).
| Time | Temp. | Humidity | Pressure | Rain* | Wind** | Luminosity | Snow |
|---|---|---|---|---|---|---|---|
| 1787684855 | 29.44° C | 29% | 1012.9 hPa | - | - | - | - |
| 1787683954 | 30.56° C | 29% | 1012.9 hPa | - | - | - | - |
| 1787683054 | 32.78° C | 29% | 1013 hPa | - | - | - | - |
| 1787682154 | 35° C | 29% | 1012.9 hPa | - | - | - | - |
| 1787681254 | 35° C | 31% | 1012.9 hPa | - | - | - | - |
| 1787680354 | 34.44° C | 29% | 1013 hPa | - | - | - | - |
| 1787679454 | 36.67° C | 29% | 1013.1 hPa | - | - | - | - |
| 1787678554 | 38.89° C | 30% | 1013.3 hPa | - | - | - | - |
| 1787677654 | 38.89° C | 31% | 1013.3 hPa | - | - | - | - |
| 1787676754 | 38.33° C | 31% | 1013.3 hPa | - | - | - | - |
| 1787675853 | 38.33° C | 31% | 1013.5 hPa | - | - | - | - |
| 1787674953 | 38.89° C | 30% | 1013.5 hPa | - | - | - | - |
| 1787674053 | 40° C | 32% | 1013.4 hPa | - | - | - | - |
| 1787673153 | 40° C | 32% | 1013.7 hPa | - | - | - | - |
| 1787672253 | 40° C | 32% | 1013.8 hPa | - | - | - | - |
| 1787671353 | 39.44° C | 33% | 1013.8 hPa | - | - | - | - |
| 1787669559 | 39.44° C | 33% | 1014.2 hPa | - | - | - | - |
| 1787668659 | 39.44° C | 34% | 1014.3 hPa | - | - | - | - |
| 1787667759 | 38.89° C | 34% | 1014.5 hPa | - | - | - | - |
| 1787666859 | 38.33° C | 34% | 1014.8 hPa | - | - | - | - |
| 1787665959 | 37.22° C | 34% | 1015 hPa | - | - | - | - |
| 1787665059 | 37.22° C | 34% | 1015.1 hPa | - | - | - | - |
| 1787664159 | 36.67° C | 34% | 1015.3 hPa | - | - | - | - |
| 1787663259 | 36.67° C | 34% | 1015.5 hPa | - | - | - | - |
| 1787662359 | 36.67° C | 35% | 1015.7 hPa | - | - | - | - |
* Rain since midnight (hover to see other rain measurements)
** Current wind speed in m/s (hover to see current wind gust speed)